Fox Island, WA

9:00 AM PST on February 06, 2016 (GMT -0800)
Tacoma Narrows

Weather History for KTIW - November, 2013

Change the Weather History Date:

Wednesday, November 20, 2013

  Actual Average (WUND) Record (WUND)
Temperature  
Mean Temperature 40 °F -  
Max Temperature 43 °F - - (-1)
Min Temperature 37 °F - - (-1)
Degree Days  
Heating Degree Days 25    
Moisture  
Dew Point 25 °F    
Average Humidity 58    
Maximum Humidity 67    
Minimum Humidity 49    
Precipitation  
Precipitation 0.00 in - - ()
Sea Level Pressure  
Sea Level Pressure 30.33 in    
Wind  
Wind Speed 10 mph (NNE)    
Max Wind Speed 17 mph    
Max Gust Speed 23 mph    
Visibility 10 miles    
Events      
Averages and records for this station are not official NWS values.
T = Trace of Precipitation, MM = Missing Value Source: NWS Daily Summary

Daily Weather History Graph

Daily Weather History Graph

Search for Another Location

Airport or City:

Trip Planner

Search our weather history database for the weather conditions in past years. The results will help you decide how hot, cold, wet, or windy it might be!

Date:

Astronomy

Nov. 20, 2013 Rise Set
Actual Time 7:22 AM PST 4:29 PM PST
Civil Twilight 6:48 AM PST 5:03 PM PST
Nautical Twilight 6:10 AM PST 5:40 PM PST
Astronomical Twilight 5:34 AM PST 6:17 PM PST
Moon 7:17 PM PST (11/20) 9:51 AM PST (11/20)
Length of Visible Light 10h 15m
Length of Day
9h 07m
Waning Gibbous, 91% of the Moon is Illuminated
Nov 20
Waning Gibbous
Nov 25
Last Quarter
Dec 2
New
Dec 9
First Quarter
Dec 17
Full

Hourly Weather History & Observations

Time (PST) Temp. Windchill Dew Point Humidity Pressure Visibility Wind Dir Wind Speed Gust Speed Precip Events Conditions
12:53 AM 39.0 °F 31.8 °F 21.9 °F 50% 30.09 in 10.0 mi North 11.5 mph - N/A   Partly Cloudy
1:53 AM 37.9 °F 32.1 °F 24.1 °F 57% 30.12 in 10.0 mi NNE 8.1 mph - N/A   Clear
2:53 AM 37.9 °F 32.1 °F 25.0 °F 60% 30.15 in 10.0 mi NNE 8.1 mph - N/A   Clear
3:53 AM 37.9 °F 32.1 °F 24.1 °F 57% 30.17 in 10.0 mi NNE 8.1 mph - N/A   Clear
4:53 AM 37.9 °F 28.5 °F 26.1 °F 62% 30.21 in 10.0 mi North 17.3 mph 23.0 mph N/A   Clear
5:53 AM 37.0 °F 28.9 °F 25.0 °F 62% 30.23 in 10.0 mi North 12.7 mph - N/A   Mostly Cloudy
6:53 AM 37.0 °F 29.3 °F 23.0 °F 57% 30.26 in 10.0 mi North 11.5 mph - N/A   Clear
7:53 AM 37.0 °F 31.0 °F 25.0 °F 62% 30.28 in 10.0 mi NNE 8.1 mph - N/A   Clear
8:53 AM 37.9 °F 30.5 °F 24.1 °F 57% 30.31 in 10.0 mi NNE 11.5 mph - N/A   Clear
9:53 AM 39.9 °F 33.4 °F 23.0 °F 51% 30.32 in 10.0 mi NNE 10.4 mph 20.7 mph N/A   Clear
10:53 AM 41.0 °F 33.9 °F 26.1 °F 55% 30.33 in 10.0 mi North 12.7 mph 19.6 mph N/A   Clear
11:53 AM 41.0 °F 33.9 °F 27.0 °F 57% 30.33 in 10.0 mi North 12.7 mph - N/A   Clear
12:53 PM 42.1 °F 36.1 °F 25.0 °F 51% 30.34 in 10.0 mi North 10.4 mph - N/A   Clear
1:53 PM 43.0 °F 38.8 °F 25.0 °F 49% 30.35 in 10.0 mi NNE 6.9 mph - N/A   Clear
2:53 PM 42.1 °F 36.6 °F 25.0 °F 51% 30.36 in 10.0 mi NNE 9.2 mph - N/A   Clear
3:53 PM 41.0 °F 34.7 °F 24.1 °F 51% 30.38 in 10.0 mi North 10.4 mph - N/A   Clear
4:53 PM 39.9 °F 32.9 °F 25.0 °F 55% 30.39 in 10.0 mi North 11.5 mph - N/A   Clear
5:53 PM 37.9 °F 31.5 °F 27.0 °F 65% 30.41 in 10.0 mi North 9.2 mph - N/A   Clear
6:53 PM 37.9 °F 34.4 °F 27.0 °F 65% 30.42 in 10.0 mi NNE 4.6 mph - N/A   Clear
7:53 PM 37.9 °F 34.4 °F 27.0 °F 65% 30.44 in 10.0 mi NNE 4.6 mph - N/A   Clear
8:53 PM 37.9 °F 32.7 °F 27.0 °F 65% 30.46 in 10.0 mi North 6.9 mph - N/A   Clear
9:53 PM 37.0 °F 32.4 °F 27.0 °F 67% 30.47 in 10.0 mi NNE 5.8 mph - N/A   Clear
10:53 PM 37.0 °F 29.8 °F 26.1 °F 65% 30.49 in 10.0 mi NNE 10.4 mph - N/A   Clear
11:53 PM 37.0 °F 31.0 °F 26.1 °F 65% 30.51 in 10.0 mi NNE 8.1 mph - N/A   Clear